Regional Weather Roundup
Issued by NWS San Diego, CA

Home | Current Version | Previous Version | Text Only | Print | Product List | Glossary On
Versions: 1 2 3 4 5 6 7 8 9 10 11 12 13 14 15 16 17 18 19 20 21 22 23 24 25 26 27
000
ASUS46 KSGX 200911
RWRSGX

SAN DIEGO HOURLY WEATHER ROUNDUP
NATIONAL WEATHER SERVICE SAN DIEGO CA
100 AM PST FRI JAN 20 2017

NOTE: "FAIR" INDICATES FEW OR NO CLOUDS BELOW 12,000 FEET WITH NO
SIGNIFICANT WEATHER AND/OR OBSTRUCTIONS TO VISIBILITY.

CAZ042-043-060-061-PZZ750-775-201000-

GREATER SAN DIEGO AREA

CITY           SKY/WX    TMP DP  RH WIND       PRES   REMARKS
SAN DIEGO AP   MOCLDY    57  51  80 CALM      29.90F
NATIONAL CITY    N/A     55  52  91 CALM      29.89F
CHULA VISTA      N/A     53  52  97 CALM      29.82F
IMPERIAL BEACH CLOUDY    56  51  84 NW5       29.90F
BROWN FIELD    CLOUDY    53  51  93 S8        29.89F
MIRAMAR MCAS   MOCLDY    56  51  84 SE6       29.88F
MONTGOMERY FLD LGT RAIN  52  50  93 SE6       29.88F

$$

NORTH SAN DIEGO COUNTY

CITY           SKY/WX    TMP DP  RH WIND       PRES   REMARKS
CAMP PENDLETON MOCLDY    51  51 100 CALM      29.87F FOG
OCEANSIDE AP   CLOUDY    53  51  93 NW3       29.87F
OCEANSIDE HBR    N/A     57  52  84 W5        29.90F
VISTA            N/A     52  47  84 CALM      29.85F
CARLSBAD       CLOUDY    53  51  93 S5        29.87F
DEL MAR          N/A     55  52  89 CALM      29.90F
LA JOLLA SCRIP   N/A     56  53  89 SW3       29.88F
FALLBROOK        N/A     51  51 100 CALM      29.88F
ESCONDIDO        N/A     51  49  91 SE3       29.89F
SAN MARCOS       N/A     51  47  86 CALM      29.90F
POWAY            N/A     51  48  90 CALM      29.91F

$$

EAST SAN DIEGO COUNTY

CITY           SKY/WX    TMP DP  RH WIND       PRES   REMARKS
RAMONA         CLOUDY    48  48 100 S3        29.87F
SANTEE LAKES     N/A     50  48  93 CALM      29.89F
LA MESA          N/A     51  49  92 CALM      29.83F
JAMUL            N/A     48  46  93 CALM      29.90F
DESCANSO N       N/A     40  39  96 SW3       29.84F
CAMPO            N/A     45  45 100 SW13      29.82F

$$

ORANGE COUNTY AND THE LOS ANGELES BASIN

CITY           SKY/WX    TMP DP  RH WIND       PRES   REMARKS
JOHN WAYNE AP  LGT RAIN  54  51  90 S5        29.86F
LAGUNA BEACH     N/A     51  49  94 E3        29.82S
LAKE FOREST FR   N/A     50  47  89 CALM      29.78S
HUNTINGTON BCH   N/A     56  52  87 W10       29.88S
LOS ALAMITOS   CLOUDY    54  51  90 W3        29.86S
FULLERTON      MOCLDY    54  53  97 CALM      29.85F
LONG BEACH     PTCLDY    55  48  77 W6        29.86S
L.A. AP        MOCLDY    54  49  83 W12       29.85F
L.A. DOWNTOWN  PTCLDY    54  52  93 CALM      29.85F

$$

THE INLAND EMPIRE

CITY           SKY/WX    TMP DP  RH WIND       PRES   REMARKS
CORONA         CLOUDY    51  49  92 SE3       29.87S
CHINO          LGT RAIN  52  50  93 CALM      29.87F FOG
ONTARIO        CLOUDY    50  49  96 SW6       29.85S
SAN BERNARDINO LGT RAIN  50  46  88 E6        29.85F
RIVERSIDE AP   LGT RAIN  49  49 100 CALM      29.86
MORENO VALLEY    N/A     48  47  99 SE5       27.98S
MARCH ARB      MOCLDY    47  47 100 S5        29.85F
HORSETHIEF CYN   N/A     48  43  84 CALM      29.88F
PERRIS           N/A     47  47  98 E2        29.88F
HEMET EAST       N/A     46  42  86 CALM      29.95S
FRENCH VALLEY  NOT AVBL
TEMECULA         N/A     52  51  95 SW7       29.94F

$$

SAN BERNARDINO AND RIVERSIDE COUNTY MOUNTAINS

CITY           SKY/WX    TMP DP  RH WIND       PRES   REMARKS
BIG BEAR AP    LGT SNOW  30  28  93 W13       29.76F WCI  20
ANGELUS OAKS     N/A     32  30  92 CALM      29.83F
PINE COVE        N/A     31  31  99 NW3       29.87F

$$

SOUTHERN DESERT INCLUDING THE COACHELLA VALLEY

CITY           SKY/WX    TMP DP  RH WIND       PRES   REMARKS
PALM SPRINGS   CLEAR     48  46  93 SW6       29.80F
PALM DESERT      N/A     50  44  80 CALM      28.94R
THERMAL        CLEAR     47  43  86 CALM      29.78F
BLYTHE         MOCLDY    52  41  66 S8        29.79F
IMPERIAL AP    CLEAR     55  42  61 W16       29.83F
EL CENTRO NAS  CLEAR     54  41  61 W18       29.85F
YUMA AZ        MOCLDY    54  39  57 W3        29.84
MEXICALI       CLEAR     54  39  58 W5        29.84F

$$

UPPER DESERT

CITY           SKY/WX    TMP DP  RH WIND       PRES   REMARKS
VICTORVILLE AP CLOUDY    43  37  81 W5        29.78S
HESPERIA         N/A     43  39  85 SW17      29.91F
PALMDALE       CLOUDY    47  40  76 SW17      29.79F
LANCASTER      CLOUDY    46  40  79 SW10      29.80F
EDWARDS AFB    MOCLDY    45  42  87 SW14      29.76F
DAGGETT        MOCLDY    49  39  68 W15       29.75F
29 PALMS N     PTCLDY    45  37  73 S5        29.83F
NEEDLES        MOCLDY    50  44  80 S3        29.77F

$$

REGIONAL REPORTS

CITY           SKY/WX    TMP DP  RH WIND       PRES   REMARKS
SANTA BARBARA  LGT RAIN  49  48  97 NE3       29.84F
SANDBERG       FOG       38  37  97 SW17      29.79F VSB 1/4 WCI  28
LAS VEGAS NV   MOCLDY    45  40  82 NE5       29.68F
PHOENIX AZ     MOCLDY    50  46  86 E5        29.83S
TIJUANA          N/A    N/A N/A N/A MISG        N/A
ENSENADA NW      N/A     55  32  42 NE6       29.90F

$$

OFFSHORE ISLANDS

CITY           SKY/WX    TMP DP  RH WIND       PRES   REMARKS
CATALINA ARPT  CLOUDY    49  49 100 W14       29.87S
SAN NICOLAS IS   N/A    N/A N/A N/A MISG      29.86F

$$

MARINE AND OFFSHORE BUOY REPORTS

STATION/POSITION SKY/WX   TEMP    WIND        PRES    VSBY  SWELL
                          AIR SEA DIR/SP/G                  HT/PER/DIR
                          (F)     (DEG/KT/KT) (MB)    (MI)  (FT/S/D)
TANNER BANKS               59 59  260/ 14/ 17 1011.8F         8/290/12
S CLEMENTE BASIN           57 61  250/  8/ 10 1011.8F         7/280/12
SAN NICOLAS IS.               59                N/A           8/300/13
SO. S. ROSA ISLA           56 57  230/ 10/ 12 1010.1F        15/280/13
W. S. BARBARA CH           56 58  220/  4/  8 1009.8F        15/290/14
M. S. BARBARA CH                  270/  8/ 10 1011.0
S. MONICA BASIN            57 59  260/ 12/ 17 1011.0F         7/270/11
S PEDRO CHANNEL               60                N/A           3/270/13
CMP PENDLETON NS              59                N/A           2/250/13
OCEANSIDE OFFSHR              60                N/A           2/260/13
TORREY PINES OTR              60                N/A           3/290/13
POINT LOMA SOUTH              60                N/A           5/280/13

$$





USA.gov is the U.S. government's official web portal to all federal, state and local government web resources and services.